Home > Time Zones > World Clock > Weather > Aktau > Past weeks

Flag for Kazakhstan Weather past 2 weeks in Aktau, Kazakhstan

Now
86 °F

Sunny.


Feels Like: 83 °F
Forecast: 76 / 95 °F
Wind: 6 mph from Northeast

Location: Aktau

Current Time: Jul 23, 2014 at 12:30:05 PM

Latest Report: Jul 23, 2014 at 11:00 AM


Visibility: 10 mi

Pressure: 29.95 "Hg

Humidity: 20%

Dew point: 41 °F

Location of AktauLocation

Historic Weather in Aktau — Graph

°F

Aktau temperature yesterday

Maximum temperature yesterday: 86 °F (at 12:30 PM)
Minimum temperature yesterday: 70 °F (at 3:30 AM)
Average temperature yesterday: 78 °F

Past Weeks' High & Low Weather Summary

 TemperatureHumidityPressure
High97 °F (Jul 16, 12:00 PM)94% (Jul 10, 6:30 AM)30.01 "Hg (Jul 10, 6:30 AM)
Low63 °F (Jul 14, 6:00 AM)7% (Jul 13, 8:00 PM)29.56 "Hg (Jul 19, 8:00 PM)
Average79 °F38%29.83 "Hg
* Reported Jul 8 10:00 AM — Jul 23 10:30 AM, Aktau, Weather by CustomWeather, © 2014

Note: Actual official high and low records may vary slightly from our data, if they occured in-between our weather recording intervals... More about our weather records

Advertising

Aktau weather history for July 8, 2014

 ConditionsComfort  
Time TempWeatherWind HumidityBarometerVisibility
10:00 AM
Jul 8
77 °FSunny.10 mph79%29.74 "Hg10 mi
10:30 AM79 °FSunny.10 mph74%29.74 "Hg10 mi
11:00 AM82 °FSunny.6 mph66%29.74 "Hg10 mi
11:30 AM79 °FPassing clouds.13 mph74%29.74 "HgN/A
12:00 PM81 °FPassing clouds.13 mph74%29.74 "HgN/A
12:30 PM82 °FPassing clouds.17 mph66%29.74 "HgN/A
1:00 PM82 °FPassing clouds.17 mph66%29.74 "HgN/A
1:30 PM86 °FPassing clouds.15 mph55%29.74 "HgN/A
2:00 PM88 °FPassing clouds.15 mph49%29.74 "HgN/A
2:30 PM86 °FSunny.15 mph52%29.74 "Hg10 mi
3:00 PM91 °FPassing clouds.13 mph41%29.71 "HgN/A
3:30 PM91 °FScattered clouds.13 mph38%29.71 "HgN/A
4:00 PM93 °FScattered clouds.13 mph34%29.71 "HgN/A
4:30 PM91 °FScattered clouds.15 mph34%29.71 "HgN/A
5:00 PM90 °FScattered clouds.15 mph36%29.71 "HgN/A
5:30 PM88 °FScattered clouds.13 mph40%29.71 "HgN/A
6:00 PM88 °FScattered clouds.13 mph40%29.71 "HgN/A
6:30 PM88 °FSunny.15 mph40%29.71 "Hg10 mi
7:00 PM86 °FSunny.15 mph43%29.71 "Hg10 mi
7:30 PM86 °FPassing clouds.15 mph43%29.71 "HgN/A
8:00 PM82 °FPassing clouds.15 mph51%29.71 "HgN/A
8:30 PM82 °FPartly sunny.13 mph51%29.71 "HgN/A
9:00 PM82 °FBroken clouds.10 mph48%29.71 "HgN/A
9:30 PM82 °FBroken clouds.10 mph45%29.71 "HgN/A
10:00 PM82 °FSprinkles. Broken clouds.8 mph48%29.71 "HgN/A
10:30 PM81 °FBroken clouds.15 mph54%29.71 "HgN/A
11:00 PM79 °FBroken clouds.10 mph58%29.71 "HgN/A
11:30 PM79 °FPartly cloudy.3 mph58%29.71 "HgN/A
Weather by CustomWeather, © 2014

See weather overviewHow to use our weather pages